Location: B�hl
(48.6968°N, 8.1352°E)
Time: 07:13:33
(UTC+00:00)

Cosmos 2154 Rocket - Pass Details

Date: 08 March 2021
Orbit: 966 x 996 km, 82.9° (Epoch: 11 April)

Event Time Altitude Azimuth Distance (km) Brightness Sun altitude
Rises 18:04:10 0° 194° (SSW) 3,651 7.2 -7.7°
Reaches altitude 10° 18:06:41 10° 197° (SSW) 2,705 6.5 -8.2°
Maximum altitude 18:12:51 71° 281° (W) 1,023 4.4 -9.2°
Drops below altitude 10° 18:19:04 10° 6° (N) 2,718 6.3 -10.2°
Sets 18:21:36 0° 8° (N) 3,670 7.0 -10.6°
